Terug naar catalogus

STARLINK-37348

ActiefCommunicatieSSO
NORAD 68737·PAYLOAD·🇺🇸 United States

Gelanceerd Apr 15, 2026 vanaf Vandenberg Space Force Base

Loading…

Volgende Passages (komende 24 uur)

TLE

VersSource: CelesTrak SupGP

Epoch: Sep 15, 2026, 03:30 UTC

1 68737C 26082K   26258.14631944 -.00002848  00000+0 -88390-4 0  2587
2 68737  97.2849 120.3508 0002093  95.0174 265.3146 15.33446995    18

Volg STARLINK-37348 in realtime met AllMySat

Download on the App Store